This is the latest recevied weather packets stored in our database for station/object AD0YN. If no packets are shown the sender has not sent any weather packets the latest 10 day(s).
| Time | Temp. | Humidity | Pressure | Rain* | Wind** | Luminosity | Snow |
|---|---|---|---|---|---|---|---|
| 1777749673 | 16.67° C | 28% | 1019.9 hPa | 0 mm | - | 896 W/m² | - |
| 1777749370 | 16.67° C | 32% | 1019.8 hPa | 0 mm | - | 902 W/m² | - |
| 1777749067 | 16.11° C | 30% | 1019.9 hPa | 0 mm | - | 901 W/m² | - |
| 1777748765 | 16.67° C | 30% | 1020 hPa | 0 mm | - | 908 W/m² | - |
| 1777748462 | 16.11° C | 34% | 1020 hPa | 0 mm | - | 911 W/m² | - |
| 1777748156 | 16.67° C | 30% | 1020 hPa | 0 mm | - | 920 W/m² | - |
| 1777747854 | 16.67° C | 31% | 1020.2 hPa | 0 mm | - | 918 W/m² | - |
| 1777747550 | 16.11° C | 30% | 1020.2 hPa | 0 mm | - | 913 W/m² | - |
| 1777747245 | 16.11° C | 29% | 1020.2 hPa | 0 mm | - | 923 W/m² | - |
| 1777746942 | 16.67° C | 30% | 1020.3 hPa | 0 mm | - | 922 W/m² | - |
| 1777746638 | 16.11° C | 37% | 1020.2 hPa | 0 mm | - | 923 W/m² | - |
| 1777746333 | 15.56° C | 33% | 1020.3 hPa | 0 mm | - | 923 W/m² | - |
| 1777746029 | 15.56° C | 31% | 1020.4 hPa | 0 mm | - | 923 W/m² | - |
| 1777745728 | 15.56° C | 32% | 1020.5 hPa | 0 mm | - | 921 W/m² | - |
| 1777745427 | 15.56° C | 31% | 1020.4 hPa | 0 mm | - | 923 W/m² | - |
| 1777745123 | 15° C | 29% | 1020.4 hPa | 0 mm | - | 922 W/m² | - |
| 1777744820 | 15.56° C | 32% | 1020.5 hPa | 0 mm | - | 914 W/m² | - |
| 1777744519 | 15.56° C | 30% | 1020.6 hPa | 0 mm | - | 918 W/m² | - |
| 1777744216 | 15.56° C | 32% | 1020.5 hPa | 0 mm | - | 923 W/m² | - |
| 1777743913 | 15.56° C | 36% | 1020.6 hPa | 0 mm | - | 919 W/m² | - |
| 1777743610 | 15.56° C | 29% | 1020.6 hPa | 0 mm | - | 918 W/m² | - |
| 1777743307 | 15.56° C | 35% | 1021 hPa | 0 mm | - | 913 W/m² | - |
| 1777743005 | 15° C | 32% | 1020.7 hPa | 0 mm | - | 911 W/m² | - |
| 1777742702 | 15.56° C | 35% | 1020.8 hPa | 0 mm | - | 924 W/m² | - |
| 1777742398 | 15.56° C | 34% | 1020.8 hPa | 0 mm | - | 901 W/m² | - |
* Rain latest hour (hover to see other rain measurements)
** Current wind speed in m/s (hover to see current wind gust speed)